Time,TemperatureF,DewpointF,PressureIn,WindDirection,WindDirectionDegrees,WindSpeedMPH,WindSpeedGustMPH,Humidity,HourlyPrecipIn,Conditions,Clouds,dailyrainin,SoftwareType,DateUTC
2013-04-22 00:03:00,46.0,38.0,30.34,SSW,205,0.0,0.0,73,0.00,,,0.00,,2013-04-22 04:03:00,
2013-04-22 00:12:00,46.0,38.0,30.34,SSW,205,0.0,0.0,73,0.00,,,0.00,,2013-04-22 04:12:00,
2013-04-22 00:23:00,46.0,38.0,30.34,SSW,205,0.0,0.0,73,0.00,,,0.00,,2013-04-22 04:23:00,
2013-04-22 00:33:00,45.0,38.0,30.33,SSW,205,0.0,2.0,76,0.00,,,0.00,,2013-04-22 04:33:00,
2013-04-22 00:43:00,45.0,38.0,30.33,SSW,205,0.0,2.0,76,0.00,,,0.00,,2013-04-22 04:43:00,
2013-04-22 00:53:00,45.0,38.0,30.33,SSW,205,0.0,2.0,76,0.00,,,0.00,,2013-04-22 04:53:00,
2013-04-22 01:03:00,45.0,38.0,30.32,SSW,205,0.0,0.0,75,0.00,,,0.00,,2013-04-22 05:03:00,
2013-04-22 01:12:00,45.0,38.0,30.32,SSW,205,0.0,0.0,75,0.00,,,0.00,,2013-04-22 05:12:00,
2013-04-22 01:22:00,45.0,38.0,30.32,SSW,205,0.0,0.0,75,0.00,,,0.00,,2013-04-22 05:22:00,
2013-04-22 01:32:00,44.0,37.0,30.31,SW,236,0.0,0.0,76,0.00,,,0.00,,2013-04-22 05:32:00,
2013-04-22 01:42:00,44.0,37.0,30.31,SW,236,0.0,0.0,76,0.00,,,0.00,,2013-04-22 05:42:00,
2013-04-22 01:52:00,44.0,37.0,30.31,SW,236,0.0,0.0,76,0.00,,,0.00,,2013-04-22 05:52:00,
2013-04-22 02:02:00,44.0,37.0,30.31,SW,236,0.0,2.0,77,0.00,,,0.00,,2013-04-22 06:02:00,
2013-04-22 02:12:00,44.0,37.0,30.31,SW,236,0.0,2.0,77,0.00,,,0.00,,2013-04-22 06:12:00,
2013-04-22 02:21:00,44.0,37.0,30.31,SW,236,0.0,2.0,77,0.00,,,0.00,,2013-04-22 06:21:00,
2013-04-22 02:32:00,44.0,37.0,30.29,NW,313,0.0,7.0,77,0.00,,,0.00,,2013-04-22 06:32:00,
2013-04-22 02:42:00,44.0,37.0,30.29,NW,313,0.0,7.0,77,0.00,,,0.00,,2013-04-22 06:42:00,
2013-04-22 02:52:00,44.0,37.0,30.29,NW,313,0.0,7.0,77,0.00,,,0.00,,2013-04-22 06:52:00,
2013-04-22 03:01:00,43.0,37.0,30.29,NW,313,0.0,2.0,79,0.00,,,0.00,,2013-04-22 07:01:00,
2013-04-22 03:12:00,43.0,37.0,30.29,NW,313,0.0,2.0,79,0.00,,,0.00,,2013-04-22 07:12:00,
2013-04-22 03:22:00,43.0,37.0,30.29,NW,313,0.0,2.0,79,0.00,,,0.00,,2013-04-22 07:22:00,
2013-04-22 03:32:00,43.0,37.0,30.29,NW,313,0.0,2.0,79,0.00,,,0.00,,2013-04-22 07:32:00,
2013-04-22 04:02:00,42.0,37.0,30.29,WSW,250,0.0,0.0,81,0.00,,,0.00,,2013-04-22 08:02:00,
2013-04-22 04:11:00,42.0,37.0,30.29,WSW,250,0.0,0.0,81,0.00,,,0.00,,2013-04-22 08:11:00,
2013-04-22 04:22:00,42.0,37.0,30.29,WSW,250,0.0,0.0,81,0.00,,,0.00,,2013-04-22 08:22:00,
2013-04-22 04:32:00,42.0,37.0,30.29,WSW,250,0.0,0.0,83,0.00,,,0.00,,2013-04-22 08:32:00,
2013-04-22 04:42:00,42.0,37.0,30.29,WSW,250,0.0,0.0,83,0.00,,,0.00,,2013-04-22 08:42:00,
2013-04-22 04:53:00,42.0,37.0,30.29,WSW,250,0.0,0.0,83,0.00,,,0.00,,2013-04-22 08:53:00,
2013-04-22 05:01:00,43.0,38.0,30.29,WSW,250,0.0,0.0,84,0.00,,,0.00,,2013-04-22 09:01:00,
2013-04-22 05:11:00,43.0,38.0,30.29,WSW,250,0.0,0.0,84,0.00,,,0.00,,2013-04-22 09:11:00,
2013-04-22 05:21:00,43.0,38.0,30.29,WSW,250,0.0,0.0,84,0.00,,,0.00,,2013-04-22 09:21:00,
2013-04-22 05:33:00,43.0,38.0,30.29,WSW,250,0.0,0.0,82,0.00,,,0.00,,2013-04-22 09:33:00,
2013-04-22 05:42:00,43.0,38.0,30.29,WSW,250,0.0,0.0,82,0.00,,,0.00,,2013-04-22 09:42:00,
2013-04-22 05:53:00,43.0,38.0,30.29,WSW,250,0.0,0.0,82,0.00,,,0.00,,2013-04-22 09:53:00,
2013-04-22 06:03:00,43.0,38.0,30.29,WSW,250,0.0,0.0,82,0.00,,,0.00,,2013-04-22 10:03:00,
2013-04-22 06:12:00,43.0,38.0,30.29,WSW,250,0.0,0.0,82,0.00,,,0.00,,2013-04-22 10:12:00,
2013-04-22 06:23:00,43.0,38.0,30.29,WSW,250,0.0,0.0,82,0.00,,,0.00,,2013-04-22 10:23:00,
2013-04-22 06:32:00,43.0,38.0,30.29,WSW,250,0.0,0.0,82,0.00,,,0.00,,2013-04-22 10:32:00,
2013-04-22 06:42:00,43.0,38.0,30.29,WSW,250,0.0,0.0,82,0.00,,,0.00,,2013-04-22 10:42:00,
2013-04-22 06:53:00,43.0,38.0,30.29,WSW,250,0.0,0.0,82,0.00,,,0.00,,2013-04-22 10:53:00,
2013-04-22 07:02:00,43.0,38.0,30.30,WSW,250,0.0,0.0,83,0.00,,,0.00,,2013-04-22 11:02:00,
2013-04-22 07:12:00,43.0,38.0,30.30,WSW,250,0.0,0.0,83,0.00,,,0.00,,2013-04-22 11:12:00,
2013-04-22 07:22:00,43.0,38.0,30.30,WSW,250,0.0,0.0,83,0.00,,,0.00,,2013-04-22 11:22:00,
2013-04-22 07:32:00,43.0,39.0,30.31,WSW,250,0.0,0.0,85,0.00,,,0.00,,2013-04-22 11:32:00,
2013-04-22 07:42:00,43.0,39.0,30.31,WSW,250,0.0,0.0,85,0.00,,,0.00,,2013-04-22 11:42:00,
2013-04-22 07:53:00,43.0,39.0,30.31,WSW,250,0.0,0.0,85,0.00,,,0.00,,2013-04-22 11:53:00,
2013-04-22 08:02:00,42.0,38.0,30.33,WSW,250,0.0,2.0,84,0.00,,,0.00,,2013-04-22 12:02:00,
2013-04-22 08:12:00,42.0,38.0,30.33,WSW,250,0.0,2.0,84,0.00,,,0.00,,2013-04-22 12:12:00,
2013-04-22 08:22:00,42.0,38.0,30.33,WSW,250,0.0,2.0,84,0.00,,,0.00,,2013-04-22 12:22:00,
2013-04-22 08:32:00,42.0,37.0,30.34,WSW,250,0.0,0.0,83,0.00,,,0.00,,2013-04-22 12:32:00,
2013-04-22 08:42:00,42.0,37.0,30.34,WSW,250,0.0,0.0,83,0.00,,,0.00,,2013-04-22 12:42:00,
2013-04-22 08:52:00,42.0,37.0,30.34,WSW,250,0.0,0.0,83,0.00,,,0.00,,2013-04-22 12:52:00,
2013-04-22 09:01:00,43.0,38.0,30.33,West,280,0.0,1.0,82,0.00,,,0.00,,2013-04-22 13:01:00,
2013-04-22 09:11:00,43.0,38.0,30.33,West,280,0.0,1.0,82,0.00,,,0.00,,2013-04-22 13:11:00,
2013-04-22 09:22:00,43.0,38.0,30.33,West,280,0.0,1.0,82,0.00,,,0.00,,2013-04-22 13:22:00,
2013-04-22 09:32:00,44.0,37.0,30.33,NNW,342,1.0,3.0,77,0.00,,,0.00,,2013-04-22 13:32:00,
2013-04-22 09:42:00,44.0,37.0,30.33,NNW,342,1.0,3.0,77,0.00,,,0.00,,2013-04-22 13:42:00,
2013-04-22 09:53:00,44.0,37.0,30.33,NNW,342,1.0,3.0,77,0.00,,,0.00,,2013-04-22 13:53:00,
2013-04-22 10:02:00,44.0,37.0,30.33,NNW,342,1.0,3.0,77,0.00,,,0.00,,2013-04-22 14:02:00,
2013-04-22 10:11:00,44.0,37.0,30.33,NNW,342,1.0,3.0,77,0.00,,,0.00,,2013-04-22 14:11:00,
2013-04-22 10:33:00,52.0,41.0,30.32,North,354,0.0,5.0,65,0.00,,,0.00,,2013-04-22 14:33:00,
2013-04-22 10:42:00,52.0,41.0,30.32,North,354,0.0,5.0,65,0.00,,,0.00,,2013-04-22 14:42:00,
2013-04-22 10:52:00,52.0,41.0,30.32,North,354,0.0,5.0,65,0.00,,,0.00,,2013-04-22 14:52:00,
2013-04-22 11:02:00,53.0,39.0,30.31,NNW,337,1.0,2.0,60,0.00,,,0.00,,2013-04-22 15:02:00,
2013-04-22 11:12:00,53.0,39.0,30.31,NNW,337,1.0,2.0,60,0.00,,,0.00,,2013-04-22 15:12:00,
2013-04-22 11:22:00,53.0,39.0,30.31,NNW,337,1.0,2.0,60,0.00,,,0.00,,2013-04-22 15:22:00,
2013-04-22 11:33:00,55.0,40.0,30.30,ENE,76,0.0,4.0,56,0.00,,,0.00,,2013-04-22 15:33:00,
2013-04-22 11:43:00,55.0,40.0,30.30,ENE,76,0.0,4.0,56,0.00,,,0.00,,2013-04-22 15:43:00,
2013-04-22 11:53:00,55.0,40.0,30.30,ENE,76,0.0,4.0,56,0.00,,,0.00,,2013-04-22 15:53:00,
2013-04-22 12:03:00,56.0,41.0,30.29,South,179,0.0,3.0,56,0.00,,,0.00,,2013-04-22 16:03:00,
2013-04-22 12:12:00,56.0,41.0,30.29,South,179,0.0,3.0,56,0.00,,,0.00,,2013-04-22 16:12:00,
2013-04-22 12:23:00,56.0,41.0,30.29,South,179,0.0,3.0,56,0.00,,,0.00,,2013-04-22 16:23:00,
2013-04-22 12:33:00,59.0,40.0,30.28,SE,138,0.0,2.0,50,0.00,,,0.00,,2013-04-22 16:33:00,
2013-04-22 12:42:00,59.0,40.0,30.28,SE,138,0.0,2.0,50,0.00,,,0.00,,2013-04-22 16:42:00,
2013-04-22 12:52:00,59.0,40.0,30.28,SE,138,0.0,2.0,50,0.00,,,0.00,,2013-04-22 16:52:00,
2013-04-22 13:02:00,59.0,39.0,30.26,ENE,76,1.0,3.0,47,0.00,,,0.00,,2013-04-22 17:02:00,
2013-04-22 13:12:00,59.0,39.0,30.26,ENE,76,1.0,3.0,47,0.00,,,0.00,,2013-04-22 17:12:00,
2013-04-22 13:22:00,59.0,39.0,30.26,ENE,76,1.0,3.0,47,0.00,,,0.00,,2013-04-22 17:22:00,
2013-04-22 13:32:00,60.0,40.0,30.25,NNW,339,2.0,6.0,47,0.00,,,0.00,,2013-04-22 17:32:00,
2013-04-22 13:42:00,60.0,40.0,30.25,NNW,339,2.0,6.0,47,0.00,,,0.00,,2013-04-22 17:42:00,
2013-04-22 13:52:00,60.0,40.0,30.25,NNW,339,2.0,6.0,47,0.00,,,0.00,,2013-04-22 17:52:00,
2013-04-22 14:02:00,61.0,40.0,30.23,NE,40,0.0,4.0,45,0.00,,,0.00,,2013-04-22 18:02:00,
2013-04-22 14:12:00,61.0,40.0,30.23,NE,40,0.0,4.0,45,0.00,,,0.00,,2013-04-22 18:12:00,
2013-04-22 14:22:00,61.0,40.0,30.23,NE,40,0.0,4.0,45,0.00,,,0.00,,2013-04-22 18:22:00,
2013-04-22 14:32:00,61.0,38.0,30.21,NNW,343,0.0,3.0,42,0.00,,,0.00,,2013-04-22 18:32:00,
2013-04-22 14:42:00,61.0,38.0,30.21,NNW,343,0.0,3.0,42,0.00,,,0.00,,2013-04-22 18:42:00,
2013-04-22 14:52:00,61.0,38.0,30.21,NNW,343,0.0,3.0,42,0.00,,,0.00,,2013-04-22 18:52:00,
2013-04-22 15:01:00,65.0,39.0,30.20,ENE,66,0.0,3.0,38,0.00,,,0.00,,2013-04-22 19:01:00,
2013-04-22 15:12:00,65.0,39.0,30.20,ENE,66,0.0,3.0,38,0.00,,,0.00,,2013-04-22 19:12:00,
2013-04-22 15:22:00,65.0,39.0,30.20,ENE,66,0.0,3.0,38,0.00,,,0.00,,2013-04-22 19:22:00,
2013-04-22 15:32:00,64.0,40.0,30.19,East,88,0.0,4.0,41,0.00,,,0.00,,2013-04-22 19:32:00,
2013-04-22 15:42:00,64.0,40.0,30.19,East,88,0.0,4.0,41,0.00,,,0.00,,2013-04-22 19:42:00,
2013-04-22 15:53:00,64.0,40.0,30.19,East,88,0.0,4.0,41,0.00,,,0.00,,2013-04-22 19:53:00,
2013-04-22 16:02:00,63.0,39.0,30.18,ENE,75,0.0,2.0,41,0.00,,,0.00,,2013-04-22 20:02:00,
2013-04-22 16:11:00,63.0,39.0,30.18,ENE,75,0.0,2.0,41,0.00,,,0.00,,2013-04-22 20:11:00,
2013-04-22 16:22:00,63.0,39.0,30.18,ENE,75,0.0,2.0,41,0.00,,,0.00,,2013-04-22 20:22:00,
2013-04-22 16:32:00,64.0,39.0,30.17,East,82,2.0,4.0,39,0.00,,,0.00,,2013-04-22 20:32:00,
2013-04-22 16:42:00,64.0,39.0,30.17,East,82,2.0,4.0,39,0.00,,,0.00,,2013-04-22 20:42:00,
2013-04-22 16:52:00,64.0,39.0,30.17,East,82,2.0,4.0,39,0.00,,,0.00,,2013-04-22 20:52:00,
2013-04-22 17:02:00,63.0,36.0,30.16,ENE,78,0.0,2.0,37,0.00,,,0.00,,2013-04-22 21:02:00,
2013-04-22 17:12:00,63.0,36.0,30.16,ENE,78,0.0,2.0,37,0.00,,,0.00,,2013-04-22 21:12:00,
2013-04-22 17:22:00,63.0,36.0,30.16,ENE,78,0.0,2.0,37,0.00,,,0.00,,2013-04-22 21:22:00,
2013-04-22 17:33:00,62.0,35.0,30.15,ESE,102,1.0,2.0,37,0.00,,,0.00,,2013-04-22 21:33:00,
2013-04-22 17:43:00,62.0,35.0,30.15,ESE,102,1.0,2.0,37,0.00,,,0.00,,2013-04-22 21:43:00,
2013-04-22 17:53:00,62.0,35.0,30.15,ESE,102,1.0,2.0,37,0.00,,,0.00,,2013-04-22 21:53:00,
2013-04-22 18:03:00,62.0,36.0,30.15,East,83,1.0,2.0,38,0.00,,,0.00,,2013-04-22 22:03:00,
2013-04-22 18:12:00,62.0,36.0,30.15,East,83,1.0,2.0,38,0.00,,,0.00,,2013-04-22 22:12:00,
2013-04-22 18:22:00,62.0,36.0,30.15,East,83,1.0,2.0,38,0.00,,,0.00,,2013-04-22 22:22:00,
2013-04-22 18:33:00,59.0,37.0,30.15,East,85,0.0,2.0,43,0.00,,,0.00,,2013-04-22 22:33:00,
2013-04-22 18:42:00,59.0,37.0,30.15,East,85,0.0,2.0,43,0.00,,,0.00,,2013-04-22 22:42:00,
2013-04-22 18:52:00,59.0,37.0,30.15,East,85,0.0,2.0,43,0.00,,,0.00,,2013-04-22 22:52:00,
2013-04-22 19:02:00,57.0,36.0,30.16,East,83,0.0,1.0,46,0.00,,,0.00,,2013-04-22 23:02:00,
2013-04-22 19:11:00,57.0,36.0,30.16,East,83,0.0,1.0,46,0.00,,,0.00,,2013-04-22 23:11:00,
2013-04-22 19:22:00,57.0,36.0,30.16,East,83,0.0,1.0,46,0.00,,,0.00,,2013-04-22 23:22:00,
2013-04-22 19:33:00,56.0,36.0,30.16,East,83,0.0,0.0,47,0.00,,,0.00,,2013-04-22 23:33:00,
2013-04-22 19:42:00,56.0,36.0,30.16,East,83,0.0,0.0,47,0.00,,,0.00,,2013-04-22 23:42:00,
2013-04-22 19:52:00,56.0,36.0,30.16,East,83,0.0,0.0,47,0.00,,,0.00,,2013-04-22 23:52:00,
2013-04-22 20:02:00,55.0,39.0,30.15,East,83,0.0,1.0,54,0.00,,,0.00,,2013-04-23 00:02:00,
2013-04-22 20:12:00,55.0,39.0,30.15,East,83,0.0,1.0,54,0.00,,,0.00,,2013-04-23 00:12:00,
2013-04-22 20:22:00,55.0,39.0,30.15,East,83,0.0,1.0,54,0.00,,,0.00,,2013-04-23 00:22:00,
2013-04-22 20:32:00,53.0,37.0,30.15,East,83,0.0,1.0,54,0.00,,,0.00,,2013-04-23 00:32:00,
2013-04-22 20:42:00,53.0,37.0,30.15,East,83,0.0,1.0,54,0.00,,,0.00,,2013-04-23 00:42:00,
2013-04-22 20:52:00,53.0,37.0,30.15,East,83,0.0,1.0,54,0.00,,,0.00,,2013-04-23 00:52:00,
2013-04-22 21:01:00,52.0,38.0,30.16,East,83,0.0,0.0,59,0.00,,,0.00,,2013-04-23 01:01:00,
2013-04-22 21:11:00,52.0,38.0,30.16,East,83,0.0,0.0,59,0.00,,,0.00,,2013-04-23 01:11:00,
2013-04-22 21:22:00,52.0,38.0,30.16,East,83,0.0,0.0,59,0.00,,,0.00,,2013-04-23 01:22:00,
2013-04-22 21:32:00,50.0,37.0,30.19,East,83,0.0,0.0,60,0.00,,,0.00,,2013-04-23 01:32:00,
2013-04-22 21:42:00,50.0,37.0,30.19,East,83,0.0,0.0,60,0.00,,,0.00,,2013-04-23 01:42:00,
2013-04-22 21:52:00,50.0,37.0,30.19,East,83,0.0,0.0,60,0.00,,,0.00,,2013-04-23 01:52:00,
2013-04-22 22:02:00,49.0,36.0,30.21,East,83,0.0,0.0,60,0.00,,,0.00,,2013-04-23 02:02:00,
2013-04-22 22:12:00,49.0,36.0,30.21,East,83,0.0,0.0,60,0.00,,,0.00,,2013-04-23 02:12:00,
2013-04-22 22:22:00,49.0,36.0,30.21,East,83,0.0,0.0,60,0.00,,,0.00,,2013-04-23 02:22:00,
2013-04-22 22:32:00,48.0,36.0,30.21,East,83,0.0,0.0,62,0.00,,,0.00,,2013-04-23 02:32:00,
2013-04-22 22:42:00,48.0,36.0,30.21,East,83,0.0,0.0,62,0.00,,,0.00,,2013-04-23 02:42:00,
2013-04-22 22:52:00,48.0,36.0,30.21,East,83,0.0,0.0,62,0.00,,,0.00,,2013-04-23 02:52:00,
2013-04-22 23:01:00,48.0,34.0,30.22,East,83,0.0,0.0,59,0.00,,,0.00,,2013-04-23 03:01:00,
2013-04-22 23:11:00,48.0,34.0,30.22,East,83,0.0,0.0,59,0.00,,,0.00,,2013-04-23 03:11:00,
2013-04-22 23:22:00,48.0,34.0,30.22,East,83,0.0,0.0,59,0.00,,,0.00,,2013-04-23 03:22:00,
2013-04-22 23:33:00,47.0,33.0,30.22,East,83,0.0,0.0,58,0.00,,,0.00,,2013-04-23 03:33:00,
2013-04-22 23:43:00,47.0,33.0,30.22,East,83,0.0,0.0,58,0.00,,,0.00,,2013-04-23 03:43:00,
2013-04-22 23:53:00,47.0,33.0,30.22,East,83,0.0,0.0,58,0.00,,,0.00,,2013-04-23 03:53:00,